Location: Geremba
(10.4250°N, 67.2394°W)
Time: 22:50:36
(UTC+00:00)

Palapa 6 Rocket - Pass Details

Date: 23 May 2024
Orbit: 483 x 1187 km, 22.7° (Epoch: 14 June)

Event Time Altitude Azimuth Distance (km) Brightness Sun altitude
Exits shadow 08:19:10 54° 56° (NE) 601 3.2 -24.8°
Drops below altitude 10° 08:22:36 10° 101° (E) 1,749 6.0 -24.0°
Sets 08:24:59 0° 105° (ESE) 2,715 7.1 -23.5°
